STARLINK-3166, 51462

Orbit data source: Space-Track

STARLINK-3166, 51462 is a payload satellite owned by SpaceX/Seattle (US) in LEO that was launched on Thu, 03 Feb 2022 UTC via an FALCON 9 launch vehicle from the Air Force Eastern Test Range (AFETR). Payload-class satellites include a variety of spacecraft equipped with specific instruments for various scientific and technological missions. These include communications satellites like Starlink; space stations such as the ISS; scientific satellites like the Hubble; Earth observation satellites from companies like Planet Labs, Umbra, and HawkEye 360; GPS; miniature CubeSats for education and research; and military/defense satellites.

Loading next visibility...
Identifier
51462, 2022-010G
Orbit
LEO
Country
Flag of USUS
Related business
Manufacturer
SpaceX/Seattle
Mission
Operational Commercial Communications
Bus & Motor
STARLINK, Unknown motor
Mass
297 kg wet, ~275 kg dry
Launch date (UTC)
2022-02-03 (4 years ago)
Launch vehicle
FALCON 9
Launch site
Air Force Eastern Test Range (AFETR)
Object type
Payload
Rocket body
Debris
Shape & HBR
Box + 1 Pan, 10.1 m
Radar Cross Section
13.562 m², Large (>1 m²)

Expand to show TLE details & history
Last TLE update: 2 days ago

TLE from 2 days ago
0 STARLINK-3166
1 51462U 22010G   26171.41668980  .00117581  00000-0  46995-2 0  9990
2 51462  53.1594 177.3614 0002255  63.7249  67.0731 15.24215076  5823
Epoch: 2026-06-20T10:00Z
TLE epoch observation values (Epoch: 2026-06-20T10:00:01.998Z)
Latitude
37.39518°
Longitude
-95.99727°
Altitude
495.591 km
Speed
7.622 km/s
True Right ascension
21h 30m 34s
True Declination
37° 13' 23"
Sunlit
Object was in daylight at epoch
Visualization orbit readout
Latitude
Unknown
Longitude
Unknown
Altitude
Unknown
Speed
Unknown
Apparent Right ascension
Unknown
Apparent Declination
Unknown
Sunlit
N/A
Visualization observer readout
Local Sidereal Time
21:44:37
Azimuth
Unknown
Elevation
Unknown
Doppler factor
Unknown
Orbital elements
Apogee altitude
494.949 km
Perigee altitude
491.85 km
Semi-major axis
6,871.536 km
Eccentricity
0.00023
Inclination
53.1594°
RAAN
177.3614°
Arg. of periapsis
63.7249°
True anomaly
67.0969°
Mean anomaly
67.0731°
Eccentric anomaly
67.085°
Mean motion
3.81033 °/min
Orbital period
94.48 mins
BSTAR
0.0046995
Loading maneuver chart data...
Computing Atmospheric mass density...

Documentation

Showing up to 5 results
|